Location: Mountain View
(37.3861°N, 122.0839°W)
Time: 15:03:45
(UTC-08:00)

ISS - Visible Passes

Search period start: 18 December 2018 00:00
Search period end: 28 December 2018 00:00
Orbit: 401 x 408 km, 51.6° (Epoch: 19 December)

Date Brightness Start Highest point End Pass type
(mag) Time Alt. Az. Time Alt. Az. Time Alt. Az.
21 Dec -0.8 06:35:06 10° S 06:37:38 21° SE 06:40:12 10° E visible
22 Dec -0.1 05:45:03 10° SE 05:45:38 10° SE 05:46:15 10° ESE visible
23 Dec -3.1 06:26:17 10° SW 06:29:31 57° SE 06:32:44 10° ENE visible
24 Dec -1.7 05:34:33 10° SSW 05:37:23 27° SE 05:40:13 10° ENE visible
25 Dec -0.6 04:45:47 13° ESE 04:45:47 13° ESE 04:47:02 10° E visible
25 Dec -3.7 06:18:33 12° WSW 06:21:28 52° NW 06:24:42 10° NE visible
26 Dec -3.5 05:29:35 64° E 05:29:35 64° E 05:32:30 10° NE visible
27 Dec -2.6 06:12:58 23° NW 06:13:32 24° NNW 06:16:18 10° NNE visible
